EW4785 Weather Reports


Display with metric or nautical units.
time (UTC)temp
F
wind
direction
speed
MPH
gust
MPH
rain 1hr
in
rain 24hr
in
rain mn
in
humidity
%
barometer
mb
20260506174548 71 213 3.0 8.0 0.00 0.00 0.00 70 1014.0
20260506173049 71 182 3.0 9.0 0.00 0.00 0.00 69 1013.5
20260506171556 71 196 3.0 9.0 0.00 0.00 0.00 70 1013.5
20260506170049 70 94 3.0 10.0 0.00 0.00 0.00 72 1013.5
20260506164543 68 67 2.0 7.0 0.00 0.00 0.00 75 1013.6
20260506163038 68 176 3.0 8.0 0.00 0.00 0.00 75 1014.0
20260506161536 67 182 2.0 7.0 0.00 0.00 0.00 76 1013.9
20260506160037 66 153 2.0 6.0 0.00 0.00 0.00 76 1013.4
20260506154534 66 116 1.0 8.0 0.00 0.00 0.00 76 1013.7
20260506153032 66 158 1.0 7.0 0.00 0.00 0.00 74 1013.9
20260506151538 67 206 0.0 5.0 0.00 0.00 0.00 74 1013.8
20260506150031 66 182 3.0 7.0 0.00 0.00 0.00 73 1013.9
20260506144531 67 170 2.0 7.0 0.00 0.00 0.00 72 1013.6
20260506143031 67 173 2.0 8.0 0.00 0.00 0.00 71 1013.4
20260506141529 67 185 3.0 9.0 0.00 0.00 0.00 71 1013.2
20260506140032 66 175 3.0 7.0 0.00 0.00 0.00 71 1013.1
20260506134524 66 169 2.0 7.0 0.00 0.00 0.00 72 1013.1
20260506133029 65 191 4.0 11.0 0.00 0.00 0.00 73 1013.1
20260506131521 64 154 3.0 8.0 0.00 0.00 0.00 74 1013.4
20260506130023 63 163 2.0 8.0 0.00 0.00 0.00 75 1013.9
20260506124522 63 245 2.0 6.0 0.00 0.00 0.00 76 1014.2
20260506123020 62 172 1.0 6.0 0.00 0.00 0.00 78 1014.1
20260506121519 61 161 1.0 6.0 0.00 0.00 0.00 79 1013.8
20260506120020 61 209 2.0 11.0 0.00 0.00 0.00 79 1013.6
20260506114532 61 153 2.0 8.0 0.00 0.00 0.00 79 1013.5
20260506113017 61 174 1.0 6.0 0.00 0.00 0.00 80 1013.5
20260506111516 60 166 2.0 6.0 0.00 0.00 0.00 80 1013.2
20260506110020 61 205 1.0 6.0 0.00 0.00 0.00 79 1012.8
20260506104512 61 186 3.0 7.0 0.00 0.00 0.00 78 1013.1
20260506103012 61 186 2.0 7.0 0.00 0.00 0.00 78 1012.9
20260506101516 61 181 3.0 10.0 0.00 0.00 0.00 77 1012.8
20260506100021 61 205 2.0 7.0 0.00 0.00 0.00 76 1012.8
20260506094507 61 158 3.0 9.0 0.00 0.00 0.00 76 1012.8
20260506093006 62 148 2.0 8.0 0.00 0.00 0.00 76 1013.1
20260506091503 62 179 2.0 9.0 0.00 0.00 0.00 75 1013.3
20260506090002 62 152 2.0 11.0 0.00 0.00 0.00 75 1013.3
20260506084605 62 132 4.0 10.0 0.00 0.00 0.00 75 1013.5
20260506083101 62 175 3.0 6.0 0.00 0.00 0.00 74 1013.7
20260506081559 62 166 2.0 7.0 0.00 0.00 0.00 74 1013.6
20260506080104 62 197 2.0 7.0 0.00 0.00 0.00 74 1013.5
20260506073056 62 180 3.0 9.0 0.00 0.00 0.00 74 1013.6
20260506071559 62 190 1.0 6.0 0.00 0.00 0.00 74 1013.5
20260506061547 63 238 3.0 8.0 0.00 0.00 0.00 74 1013.8
20260506044543 64 163 3.0 11.0 0.00 0.00 0.00 72 1014.2
20260506043035 65 180 2.0 9.0 0.00 0.00 0.00 71 1014.4
20260506041534 65 179 3.0 10.0 0.00 0.00 0.00 71 1014.3
20260506040030 65 157 2.0 7.0 0.00 0.00 0.00 70 1014.1
20260506034530 66 174 3.0 10.0 0.00 0.00 0.00 69 1014.0
20260506033034 66 179 2.0 6.0 0.00 0.00 0.00 67 1014.1
20260506031533 66 179 2.0 8.0 0.00 0.00 0.00 65 1014.3
20260506030050 67 153 1.0 7.0 0.00 0.00 0.00 63 1014.3
20260506024530 68 110 1.0 7.0 0.00 0.00 0.00 60 1014.4
20260506023027 67 180 2.0 6.0 0.00 0.00 0.00 58 1014.5
20260506021527 68 178 0.0 3.0 0.00 0.00 0.00 56 1014.3
20260506020027 68 204 2.0 6.0 0.00 0.00 0.00 56 1014.3
20260506014525 68 188 1.0 4.0 0.00 0.00 0.00 55 1014.2
20260506013025 69 192 0.0 4.0 0.00 0.00 0.00 54 1014.0
20260506011533 69 191 0.0 3.0 0.00 0.00 0.00 53 1013.8
20260506010023 70 191 0.0 3.0 0.00 0.00 0.00 51 1013.6
20260506004541 71 171 0.0 3.0 0.00 0.00 0.00 50 1013.5
20260506003031 71 192 0.0 3.0 0.00 0.00 0.00 49 1013.5
20260506001523 72 188 1.0 3.0 0.00 0.00 0.00 48 1013.4
20260506000024 73 109 0.0 5.0 0.00 0.00 0.00 46 1013.2
20260505234519 74 137 1.0 9.0 0.00 0.00 0.00 44 1013.0
20260505233019 75 179 1.0 8.0 0.00 0.00 0.00 43 1012.9
20260505231524 76 185 3.0 8.0 0.00 0.00 0.00 41 1012.8
20260505230016 77 179 6.0 12.0 0.00 0.00 0.00 39 1012.8
20260505224515 78 155 5.0 14.0 0.00 0.00 0.00 39 1012.8
20260505223013 78 164 4.0 10.0 0.00 0.00 0.00 40 1013.0
20260505221512 77 237 3.0 8.0 0.00 0.00 0.00 40 1013.1
20260505220011 79 140 5.0 12.0 0.00 0.00 0.00 40 1013.1
20260505214512 79 201 4.0 10.0 0.00 0.00 0.00 39 1013.2
20260505213008 79 173 5.0 10.0 0.00 0.00 0.00 39 1013.4
20260505211508 78 215 4.0 12.0 0.00 0.00 0.00 38 1013.5
20260505210006 80 202 5.0 11.0 0.00 0.00 0.00 39 1013.4
20260505204505 80 201 5.0 10.0 0.00 0.00 0.00 38 1013.4
20260505203018 80 215 6.0 13.0 0.00 0.00 0.00 36 1013.4
20260505201501 79 163 3.0 12.0 0.00 0.00 0.00 38 1013.6
20260505200000 80 260 4.0 11.0 0.00 0.00 0.00 39 1013.9
20260505194601 80 121 4.0 9.0 0.00 0.00 0.00 40 1014.0
20260505193119 78 221 5.0 14.0 0.00 0.00 0.00 40 1014.2
20260505191559 79 192 4.0 11.0 0.00 0.00 0.00 41 1014.3
20260505190051 78 234 2.0 10.0 0.00 0.00 0.00 42 1014.8
20260505184554 78 195 4.0 10.0 0.00 0.00 0.00 41 1015.0
20260505183049 78 195 3.0 9.0 0.00 0.00 0.00 39 1015.3
20260505181547 78 215 4.0 10.0 0.00 0.00 0.00 41 1015.6
20260505180046 78 205 4.0 7.0 0.00 0.00 0.00 40 1015.6